Gillette, WY

1:42 PM MDT on May 22, 2018 (GMT -0600)
Gillette-Campbell County

Weather History for KGCC - December, 2014

Change the Weather History Date:

Tuesday, December 16, 2014

  Actual Average Record
Temperature  
Mean Temperature 20 °F 23 °F  
Max Temperature 26 °F 34 °F 61 °F (1939)
Min Temperature 14 °F 13 °F -27 °F (1964)
Degree Days  
Heating Degree Days 45 42  
Month to date heating degree days 480 651  
Since 1 July heating degree days 2263 2526  
Cooling Degree Days 0 0  
Month to date cooling degree days 0 0  
Year to date cooling degree days 412 502  
Moisture  
Dew Point 15 °F    
Average Humidity 83    
Maximum Humidity 92    
Minimum Humidity 74    
Precipitation  
Precipitation 0.00 in 0.01 in 0.44 in (1981)
Month to date precipitation 0.13 0.23  
Year to date precipitation 18.07 13.72  
Sea Level Pressure  
Sea Level Pressure 30.16 in    
Wind  
Wind Speed 10 mph (SSE)    
Max Wind Speed 22 mph    
Max Gust Speed 25 mph    
Visibility 7 miles    
Events      
T = Trace of Precipitation, MM = Missing Value Source: NWS Daily Summary

Daily Weather History Graph

Daily Weather History Graph

Search for Another Location

Airport or City:

Astronomy

Dec. 16, 2014 Rise Set
Actual Time 7:31 AM MST 4:23 PM MST
Civil Twilight 6:58 AM MST 4:57 PM MST
Nautical Twilight 6:21 AM MST 5:33 PM MST
Astronomical Twilight 5:46 AM MST 6:09 PM MST
Moon 1:38 AM MST (12/16) 1:05 PM MST (12/16)
Length of Visible Light 9h 58m
Length of Day
8h 51m
Waning Crescent, 29% of the Moon is Illuminated
Dec 16
Waning Crescent
Dec 21
New
Dec 28
First Quarter
Jan 4
Full
Jan 13
Last Quarter

Hourly Weather History & Observations

Time (MST) Temp. Windchill Dew Point Humidity Pressure Visibility Wind Dir Wind Speed Gust Speed Precip Events Conditions
12:00 AM 18.0 °F 12.7 °F 16.0 °F 92% 30.16 in 10.0 mi WSW 3.5 mph - N/A   Overcast
12:53 AM 17.1 °F 8.7 °F 16.0 °F 96% 30.31 in 6.0 mi South 5.8 mph - N/A   Overcast
1:16 AM 17.1 °F 10.0 °F 15.1 °F 92% 30.15 in 1.8 mi South 4.6 mph - N/A   Overcast
1:53 AM 17.1 °F 5.8 °F 15.1 °F 92% 30.31 in 1.2 mi SSW 9.2 mph - N/A   Overcast
2:39 AM 17.1 °F 11.7 °F 16.0 °F 96% 30.14 in 0.8 mi SSW 3.5 mph - N/A   Mist
2:48 AM 17.6 °F - 15.8 °F 93% 30.14 in 1.2 mi Calm Calm - N/A   Overcast
2:53 AM 17.1 °F 8.7 °F 15.1 °F 92% 30.29 in 1.2 mi SE 5.8 mph - N/A   Overcast
3:07 AM 17.1 °F 8.7 °F 15.1 °F 92% 30.13 in 3.0 mi SSE 5.8 mph - N/A   Overcast
3:28 AM 17.1 °F 6.6 °F 15.1 °F 92% 30.14 in 2.0 mi South 8.1 mph - N/A   Overcast
3:46 AM 17.1 °F 8.7 °F 15.1 °F 92% 30.13 in 1.2 mi South 5.8 mph - N/A   Overcast
3:53 AM 16.0 °F 5.3 °F 14.0 °F 92% 30.30 in 2.0 mi SSE 8.1 mph - N/A   Overcast
4:19 AM 16.0 °F 7.4 °F 14.0 °F 92% 30.12 in 6.0 mi South 5.8 mph - N/A   Overcast
4:53 AM 16.0 °F 8.8 °F 12.9 °F 88% 30.28 in 9.0 mi South 4.6 mph - N/A   Overcast
5:53 AM 16.0 °F 5.3 °F 14.0 °F 92% 30.27 in 3.0 mi South 8.1 mph - N/A   Overcast
6:04 AM 16.0 °F 6.3 °F 14.0 °F 92% 30.12 in 2.5 mi South 6.9 mph - N/A   Overcast
6:13 AM 15.1 °F 4.2 °F 12.9 °F 91% 30.12 in 6.0 mi SSE 8.1 mph - N/A   Overcast
6:53 AM 16.0 °F 10.4 °F 12.9 °F 88% 30.27 in 8.0 mi SSE 3.5 mph - N/A   Overcast
7:50 AM 15.8 °F 8.6 °F 12.2 °F 86% 30.11 in 10.0 mi SE 4.6 mph - N/A   Overcast
7:53 AM 15.1 °F 7.7 °F 12.0 °F 88% 30.27 in 10.0 mi SE 4.6 mph - N/A   Mostly Cloudy
8:09 AM 15.1 °F 6.4 °F 12.0 °F 88% 30.11 in 10.0 mi SSE 5.8 mph - N/A   Partly Cloudy
8:53 AM 16.0 °F 8.8 °F 12.9 °F 88% 30.28 in 10.0 mi SSE 4.6 mph - N/A   Clear
9:38 AM 17.1 °F 5.8 °F 12.9 °F 84% 30.11 in 4.0 mi South 9.2 mph - N/A   Partly Cloudy
9:53 AM 17.1 °F 4.3 °F 12.9 °F 84% 30.27 in 10.0 mi SSE 11.5 mph - N/A   Partly Cloudy
10:53 AM 18.0 °F 7.7 °F 15.1 °F 88% 30.26 in 10.0 mi SSE 8.1 mph - N/A   Clear
11:53 AM 21.9 °F 11.0 °F 18.0 °F 85% 30.22 in 10.0 mi SSE 10.4 mph - N/A   Clear
12:53 PM 26.1 °F 16.2 °F 19.0 °F 75% 30.18 in 10.0 mi SSE 10.4 mph - N/A   Clear
1:53 PM 25.0 °F 13.1 °F 18.0 °F 75% 30.17 in 10.0 mi SSE 13.8 mph - N/A   Clear
2:53 PM 24.1 °F 12.0 °F 18.0 °F 77% 30.17 in 10.0 mi South 13.8 mph - N/A   Clear
3:53 PM 21.9 °F 9.8 °F 16.0 °F 78% 30.18 in 10.0 mi South 12.7 mph - N/A   Clear
4:53 PM 21.9 °F 9.8 °F 17.1 °F 82% 30.18 in 10.0 mi South 12.7 mph - N/A   Partly Cloudy
5:53 PM 21.0 °F 10.6 °F 16.0 °F 81% 30.17 in 10.0 mi SSE 9.2 mph - N/A   Mostly Cloudy
6:53 PM 19.0 °F 4.0 °F 16.0 °F 88% 30.18 in 10.0 mi South 17.3 mph - N/A   Scattered Clouds
7:51 PM 17.6 °F - 15.8 °F 93% 30.01 in 5.0 mi North - - N/A   Mostly Cloudy
7:53 PM 18.0 °F 6.9 °F 16.0 °F 92% 30.18 in 5.0 mi SSE 9.2 mph - N/A   Mostly Cloudy
8:02 PM 18.0 °F 3.6 °F 15.1 °F 88% 30.01 in 10.0 mi South 15.0 mph - N/A   Mostly Cloudy
8:09 PM 18.0 °F 3.6 °F 15.1 °F 88% 30.01 in 10.0 mi South 15.0 mph - N/A   Mostly Cloudy
8:29 PM 18.0 °F 2.6 °F 16.0 °F 92% 30.00 in 10.0 mi South 17.3 mph - N/A   Overcast
8:38 PM 18.0 °F 3.6 °F 16.0 °F 92% 30.00 in 10.0 mi South 15.0 mph - N/A   Overcast
8:53 PM 18.0 °F 2.6 °F 16.0 °F 92% 30.17 in 10.0 mi South 17.3 mph - N/A   Mostly Cloudy
9:21 PM 18.0 °F 3.6 °F 16.0 °F 92% 30.00 in 10.0 mi South 15.0 mph - N/A   Mostly Cloudy
9:53 PM 18.0 °F 6.9 °F 16.0 °F 92% 30.14 in 8.0 mi SSE 9.2 mph - N/A   Overcast
10:53 PM 18.0 °F 4.8 °F 16.0 °F 92% 30.14 in 10.0 mi SSE 12.7 mph 23.0 mph N/A   Overcast
11:53 PM 18.0 °F 4.8 °F 16.0 °F 92% 30.11 in 10.0 mi SSE 12.7 mph - N/A   Overcast